Regional Weather Roundup
Issued by NWS

Home | Current Version | Previous Version | Text Only | Print | Product List | Glossary On
Versions: 1 2 3 4 5 6 7 8 9 10 11 12 13 14 15 16 17 18 19 20 21 22 23 24 25 26 27 28 29 30 31 32 33 34 35 36 37 38 39 40 41 42 43 44 45 46 47 48 49 50
000
ASCA44 KEWX 261920
RWRMX

LATIN AMERICA AND CARIBBEAN REGIONAL WEATHER ROUNDUP
NATIONAL WEATHER SERVICE AUSTIN/SAN ANTONIO TX
100 PM CST FRI DEC 26 2014

NOTE: "FAIR" INDICATED FEW OR NO CLOUDS BELOW 12,000 FEET WITH NO
SIGNIFICANT WEATHER AND/OR OBSTRUCTIONS TO VISIBILITY.

BAJA CALIFORNIA

CITY           SKY/WX    TMP DP  RH WIND       PRES   REMARKS
LORETO         CLOUDY    73  55  53 SE6       29.94F
LA PAZ         PTSUNNY   73  57  56 N9        29.98
MEXICALI       SUNNY     57  16  19 NW13      30.11
S.J. DEL CABO  PTSUNNY   77  57  50 SE6       29.99F
TIJUANA        SUNNY     61  10  13 E10       30.09S

NORTHWESTERN MEXICO

CITY           SKY/WX    TMP DP  RH WIND       PRES   REMARKS
CULIACAN       PTSUNNY   81  59  47 CALM      29.99
DURANGO        SUNNY     64  32  29 SW20      30.14F
GUAYMAS        PTSUNNY   70  54  56 SW9       29.93
HERMOSILLO     PTSUNNY   70  48  46 S6        30.00
CD. JUAREZ     LGT SNOW  36  36 100 S7        29.93  WCI  30
LOS MOCHIS     PTSUNNY   75  57  53 SE5       29.98F
OBREGON        PTSUNNY   72  54  53 SW9       29.93

NORTHEASTERN MEXICO

CITY           SKY/WX    TMP DP  RH WIND       PRES   REMARKS
CHIHUAHUA      PTSUNNY   66  23  19 SW23G36   29.92
MATAMOROS      PTSUNNY   75  66  73 SE21      29.94
MONCLOVA       MOSUNNY   72  37  28 CALM      29.85F
MONTERREY      PTSUNNY   72  45  37 SE6       29.88F
NUEVO LAREDO   PTSUNNY   72  54  53 SE7       29.89
PIEDRAS NEGRAS MOSUNNY   61  48  63 SE7       29.90F
REYNOSA        MOSUNNY   75  55  50 SE9G21    29.89
SALTILLO       MOSUNNY   75  41  29 SW15      30.07F
TORREON        MOSUNNY   73  39  29 CALM      29.98F
CD. VICTORIA   MOSUNNY   73  54  49 S7        29.90

WESTERN MEXICO

CITY           SKY/WX    TMP DP  RH WIND       PRES   REMARKS
AGUASCALIENTES PTSUNNY   63  37  39 S22       30.24
COLIMA         MOSUNNY   79  61  53 CALM      30.04F
DEL BAJIO      PTSUNNY   66  46  48 W7        30.29F
GUADALAJARA    PTSUNNY   70  48  46 CALM      30.18
MANZANILLO     MOSUNNY   86  72  62 SW7       29.87F HX  92
MAZATLAN       MOSUNNY   81  61  50 S13       29.96F
P. VALLARTA    PTSUNNY   81  64  57 S7        29.95F
URUAPAN        PTSUNNY   68  55  64 S9        30.20F
ZACATECAS      MOSUNNY   64  32  29 SW35      30.19F

CENTRAL MEXICO

CITY           SKY/WX    TMP DP  RH WIND       PRES   REMARKS
CUERNAVACA     PTSUNNY   75  52  43 S5        30.16F
MEXICO CITY    PTSUNNY   68  45  42 S12       30.29F
MORELIA        PTSUNNY   68  48  49 S13       30.23
POZA RICA      PTSUNNY   77  64  65 CALM      30.00F
PUEBLA         CLOUDY    68  46  45 S13       30.30F
QUERETARO      PTSUNNY   64  46  52 NW8       30.27F
S. LUIS POTOSI PTSUNNY   70  34  26 SW16      30.18F
TAMPICO        PTSUNNY   73  59  60 S12       29.96F
TOLUCA         PTSUNNY   64  41  42 S14       30.37F

SOUTHERN MEXICO

CITY           SKY/WX    TMP DP  RH WIND       PRES   REMARKS
ACAPULCO       MOSUNNY   86  73  66 SW7       29.86F HX  93
B. DE HUATULCO CLOUDY    86  72  62 S7        29.91  HX  92
OAXACA         PTSUNNY   77  45  31 SW6       30.19F
P. ESCONDIDO   MOSUNNY   81  72  74 S10       30.02F
VERACRUZ       PTSUNNY   77  61  57 S9        30.00F
ZIHUATANEJO    PTSUNNY   88  70  55 SW8       29.89F HX  92

YUCATAN PENINSULA

CITY           SKY/WX    TMP DP  RH WIND       PRES   REMARKS
CAMPECHE       PTSUNNY   86  72  62 E15       29.96F HX  92
CANCUN         PTSUNNY   84  73  70 SE16      30.05F HX  91
CHETUMAL       PTSUNNY   82  75  78 E12       29.99F
CD. DEL CARMEN PTSUNNY   79  68  69 E12       29.97
COZUMEL        PTSUNNY   79  73  83 E20       30.04F
MERIDA         PTSUNNY   86  72  62 SE14      29.99F HX  92
MINATITLAN     CLOUDY    75  66  73 N12       29.95
TAPACHULA      MOSUNNY   88  73  62 SW12      29.86F HX  96
TUX. GUTIERREZ MOSUNNY   81  61  50 S3        29.95F
VILLAHERMOSA   PTSUNNY   77  70  78 E12       29.97F

CENTRAL AMERICA

CITY           SKY/WX    TMP DP  RH WIND       PRES   REMARKS
BELIZE CITY    MOSUNNY   81  72  74 NE6       30.00F
MANAGUA        MOCLDY    84  64  51 E14       29.83F

CARIBBEAN

CITY           SKY/WX    TMP DP  RH WIND       PRES   REMARKS
ARUBA          MOSUNNY   86  73  66 E18       29.83F HX  93
CURACAO        MOSUNNY   82  73  74 E14       29.89S
KINGSTON       MOSUNNY   86  73  66 SE5       29.92F HX  93
NASSAU         MOSUNNY   81  70  69 S9        30.13F
SAN JUAN       MOSUNNY   82  72  69 NE17      30.01F
SANTO DOMINGO  PTSUNNY   84  75  74 SE14      29.97F HX  92
ST. KITTS      MOSUNNY   82  72  69 NE17      30.00S
ST. MAARTEN    MOSUNNY   82  66  57 E13       30.00S

$$



USA.gov is the U.S. government's official web portal to all federal, state and local government web resources and services.